This demonstration page uses our WeatherBlox Daily Observations layout. Learn more.

Left ArrowRight Arrow

41.86663, -103.66717

Hourly Observations for January 27, 2022

Temp ( °F °C ) Dew Point ( °F °C ) Humidity (%) Winds ( mph kmh ) Pressure ( in mb ) Visibility ( mi km ) Precip ( " mm )
12:53 am 00:53 Cloudy 29 -1.7 18 -7.8 63 63 WNW 7 11 30.19 1022 10 16 0.00 0.00
1:53 am 01:53 Cloudy 29 -1.7 18 -7.8 63 63 WNW 6 9 30.20 1023 10 16 0.00 0.00
2:53 am 02:53 Cloudy 27 -2.8 19 -7.2 72 72 NW 6 9 30.23 1024 10 16 0.00 0.00
3:53 am 03:53 Cloudy 29 -1.7 19 -7.2 66 66 WNW 8 13 30.24 1024 10 16 0.00 0.00
4:53 am 04:53 Cloudy 30 -1.1 20 -6.7 66 66 WNW 7 11 30.27 1025 10 16 0.00 0.00
5:53 am 05:53 Cloudy 30 -1.1 20 -6.7 66 66 WNW 7 11 30.31 1026 10 16 0.00 0.00
6:53 am 06:53 Cloudy 30 -1.1 20 -6.7 66 66 WNW 9 15 30.36 1028 10 16 0.00 0.00
7:53 am 07:53 Cloudy 30 -1.1 22 -5.6 72 72 WNW 8 13 30.39 1029 10 16 0.00 0.00
8:53 am 08:53 Mostly Sunny 31 -0.6 23 -5 72 72 WNW 13 20 30.42 1030 10 16 0.00 0.00
9:53 am 09:53 Sunny 34 1.1 21 -6.1 59 59 NW 18 30 30.45 1031 10 16 0.00 0.00
10:53 am 10:53 Cloudy 34 1.1 20 -6.7 56 56 NNW 18 30 30.47 1032 10 16 0.00 0.00
11:53 am 11:53 Mostly Cloudy 36 2.2 18 -7.8 48 48 NNW 23 37 30.46 1031 10 16 0.00 0.00
12:53 pm 12:53 Mostly Cloudy 34 1.1 17 -8.3 50 50 NW 20 31 30.45 1031 10 16 0.00 0.00
1:53 pm 13:53 Partly Cloudy 37 2.8 17 -8.3 44 44 NW 23 37 30.44 1031 10 16 0.00 0.00
2:53 pm 14:53 Mostly Cloudy 35 1.7 15 -9.4 44 44 NW 25 41 30.46 1032 10 16 0.00 0.00
3:53 pm 15:53 Cloudy 35 1.7 16 -8.9 46 46 NW 20 31 30.46 1032 10 16 0.00 0.00
4:53 pm 16:53 Mostly Cloudy 33 0.6 16 -8.9 49 49 NW 16 26 30.48 1032 10 16 0.00 0.00
5:53 pm 17:53 Clear 29 -1.7 17 -8.3 61 61 NNW 9 15 30.48 1032 10 16 0.00 0.00
6:53 pm 18:53 Clear 27 -2.8 17 -8.3 66 66 WNW 3 6 30.50 1033 10 16 0.00 0.00
7:53 pm 19:53 Clear 24 -4.4 16 -8.9 71 71 W 5 7 30.50 1033 10 16 0.00 0.00
8:53 pm 20:53 Clear 22 -5.6 15 -9.4 75 75 NNW 3 6 30.50 1033 10 16 0.00 0.00
9:53 pm 21:53 Clear 20 -6.7 15 -9.4 81 81 NW 7 11 30.49 1033 10 16 0.00 0.00
10:53 pm 22:53 Clear 20 -6.7 13 -10.6 74 74 WNW 8 13 30.48 1032 10 16 0.00 0.00
11:53 pm 23:53 Clear 18 -7.8 12 -11.1 77 77 NW 5 7 30.48 1032 10 16 0.00 0.00

Powered by AerisWeather